Location: Castillon
(43.0896°N, 0.2156°E)
Time: 02:12:08
(UTC+00:00)

SL-16 R/B - Pass Details

Date: 16 June 2021
Orbit: 842 x 847 km, 71.0° (Epoch: 25 July)

Event Time Altitude Azimuth Distance (km) Brightness Sun altitude
Exits shadow 23:20:06 24° 106° (ESE) 1,671 3.5 -22.9°
Maximum altitude 23:20:22 24° 102° (ESE) 1,668 3.5 -22.9°
Drops below altitude 10° 23:24:50 10° 50° (NE) 2,471 5.0 -23.0°
Sets 23:27:41 0° 37° (NE) 3,410 6.0 -23.1°
